Flag for Canada Weather past 2 weeks in Coquitlam, British Columbia, Canada

Now
58 °F

Cool.


Feels Like: 58 °F
Forecast: 46 / 62 °F
Wind: 1 mph from Southwest

Location: P. Meadows Coastal Station

Current Time: Oct 1, 2014 at 7:22:15 PM

Latest Report: Oct 1, 2014 at 7:00 PM


Visibility: N/A

Pressure: 30.15 "Hg

Humidity: 75%

Dew point: 50 °F

Location of CoquitlamLocation

Historic Weather in Coquitlam — Graph

°F

Coquitlam temperature yesterday

Maximum temperature yesterday: 65 °F (at 3:00 PM)
Minimum temperature yesterday: 51 °F (at 11:00 PM)
Average temperature yesterday: 58 °F

Past Weeks' High & Low Weather Summary

 TemperatureHumidityPressure
High86 °F (Sep 21, 4:00 PM)100% (Sep 19, 1:00 AM)30.20 "Hg (Sep 19, 1:00 AM)
Low49 °F (Sep 29, 5:00 AM)29% (Sep 21, 4:00 PM)29.65 "Hg (Sep 24, 1:00 AM)
Average60 °F87%29.93 "Hg
* Reported Sep 16 6:00 PM — Oct 1 6:00 PM, Coquitlam, Weather by CustomWeather, © 2014

Note: Actual official high and low records may vary slightly from our data, if they occured in-between our weather recording intervals... More about our weather records

Advertising

Coquitlam weather history for previous 24 hours

 ConditionsComfort  
Time TempWeatherWind HumidityBarometerVisibility
6:00 PM
Oct 1
59 °FCool.2 mph72%30.15 "HgN/A
4:00 PM60 °FCool.6 mph66%30.15 "HgN/A
3:00 PM62 °FRefreshingly cool.7 mph58%30.16 "HgN/A
2:00 PM62 °FCool.6 mph61%30.17 "HgN/A
1:00 PM62 °FCool.6 mph66%30.18 "HgN/A
12:00 PM58 °FCool.3 mph78%30.19 "HgN/A
11:00 AM59 °FCool.3 mph69%30.19 "HgN/A
10:00 AM57 °FCool.1 mph83%30.20 "HgN/A
9:00 AM55 °FCool.2 mph90%30.19 "HgN/A
8:00 AM54 °FCool.2 mph91%30.18 "HgN/A
7:00 AM53 °FCool.No wind94%30.17 "HgN/A
6:00 AM51 °FCool.1 mph95%30.17 "HgN/A
5:00 AM51 °FCool.2 mph99%30.16 "HgN/A
4:00 AM52 °FCool.1 mph94%30.16 "HgN/A
3:00 AM51 °FCool.1 mph96%30.15 "HgN/A
2:00 AM49 °FCool.No wind100%30.15 "HgN/A
1:00 AM51 °FCool.1 mph95%30.14 "HgN/A
12:00 AM50 °FCool.No wind94%30.13 "HgN/A
11:00 PM
Sep 30
51 °FCool.1 mph92%30.12 "HgN/A
10:00 PM53 °FCool.2 mph88%30.11 "HgN/A
9:00 PM54 °FCool.2 mph82%30.10 "HgN/A
8:00 PM58 °FCool.3 mph72%30.09 "HgN/A
7:00 PM60 °FCool.3 mph68%30.07 "HgN/A
Weather by CustomWeather, © 2014

See weather overviewHow to use our weather pages